Tracking 25707 objects as of 29-Jun-2022
HD Live streaming from Space Station
objects crossing your sky now

STARLINK-3891

Track STARLINK-3891 now!
10-day predictions
STARLINK-3891 is classified as:


NORAD ID: 52650
Int'l Code: 2022-052BE
Perigee: 354.8 km
Apogee: 359.0 km
Inclination: 53.2 °
Period: 91.5 minutes
Semi major axis: 6727 km
RCS: Unknown
Launch date: May 14, 2022
Source: United States (US)
Launch site: AIR FORCE EASTERN TEST RANGE (AFETR)
aabbcc
Your satellite tracking list
Your tracking list is empty




NASA's NSSDC Master Catalog

Two Line Element Set (TLE):
1 52650U 22052BE  22180.58334491  .00058521  00000-0  41824-3 0  9992
2 52650  53.2127 213.1756 0003099  11.8198 216.7152 15.73209532  1309
Source of the keplerian elements: AFSPC